Torna al catalogo

STARLINK-34739

AttivoComunicazioniSSO
NORAD 65066·PAYLOAD·🇺🇸 United States

Lanciato Jul 31, 2025 da Vandenberg Space Force Base

Loading…

Prossimi Passaggi (prossime 24 ore)

TLE

AggiornatoSource: CelesTrak SupGP

Epoca: Sep 14, 2026, 21:25 UTC

1 65066C 25165L   26257.89284722 -.00042606  00000+0 -25906-2 0  2576
2 65066  97.2850 329.2054 0001622  89.0027  22.3551 15.10566246    13

Traccia STARLINK-34739 in tempo reale con AllMySat

Download on the App Store